(294133) = 2003 TN49 = 2007 TH277

Discovered at Mount Lemmon on 2007-10-11 by Mt. Lemmon Survey.

Orbit

Orbit type: Main Belt

Note: WebGL enabled browser required.

epoch2022-01-21.0
epoch JD2459600.5
perihelion date2019-05-07.39442
perihelion JD2458610.89442
argument of perihelion (°)18.37306
ascending node (°)259.99363
inclination (°)3.86767
eccentricity0.1632328
perihelion distance (AU)2.1690153
Tisserand w.r.t. Jupiter3.4
ΔV w.r.t. Earth (km/sec)9.3
semimajor axis (AU)2.5921370
mean anomaly (°)233.71094
mean daily motion (°/day)0.23616580
aphelion distance (AU)3.015
period (years)4.17
P-vector [x]0.14480089
P-vector [y]-0.91606015
P-vector [z]-0.37398731
Q-vector [x]0.98722858
Q-vector [y]0.10838216
Q-vector [z]0.11676064
absolute magnitude16.68
phase slope0.15
uncertainty0
referenceMPO 697039
observations used376
oppositions13
arc length (days)6744
first opposition used2003
last opposition used2022
residual rms (arc-secs)0.73
perturbers coarse indicatorM-v
perturbers precise indicator003Ek
first observation date used2003-10-03.0
last observation date used2022-03-21.0
computer namePan
JD of orbit computation2456847.721882
perihelion JD uncertainty (days)1.4782E-04
argument of perihelion uncertainty (°)1.5311E-04
ascending node uncertainty (°)1.4862E-04
inclination uncertainty (°)4.8026E-06
eccentricity uncertainty 3.8494E-08
perihelion distance uncertainty (AU)1.1396E-07
Minimum Orbit Intersection Distances (in AU)
for orbit epoch: 2459600.5, reference: E2022-B04
Mercury1.71009
Venus1.44259
Earth1.15409
Mars0.70292
Jupiter2.10134
Saturn6.06465
Uranus15.6186
Neptune27.0685

Observations

395 total observations over interval: 2003 10 03.38404 – 2022 03 21.262052
These data are available for download (format description).

Date (UT) J2000 RA J2000 Dec Magn Location Ref
2003 10 03.38404 02 37 25.51 +19 55 53.3 21.4 V 691 – Steward Observatory, Kitt Peak-Spacewatch MPS 109854
2003 10 03.41068 02 37 24.45 +19 55 48.9 21.5 V 691 – Steward Observatory, Kitt Peak-Spacewatch MPS 109854
2003 10 03.43748 02 37 23.36 +19 55 44.0 22.4 V 691 – Steward Observatory, Kitt Peak-Spacewatch MPS 109854
2003 10 22.36524 02 22 10.20 +18 38 21.8 21.0 V 691 – Steward Observatory, Kitt Peak-Spacewatch MPS 109854
2003 10 22.39232 02 22 08.67 +18 38 13.2 21.2 V 691 – Steward Observatory, Kitt Peak-Spacewatch MPS 109854
2003 10 22.42248 02 22 06.93 +18 38 03.6 21.3 V 691 – Steward Observatory, Kitt Peak-Spacewatch MPS 109854
2006 05 06.28524 14 28 17.32 -19 01 01.3 19.2 V G96 – Mt. Lemmon Survey MPS 229096
2006 05 06.29028 14 28 17.04 -19 00 59.2 19.3 V G96 – Mt. Lemmon Survey MPS 229096
2006 05 06.29554 14 28 16.75 -19 00 57.7 19.3 V G96 – Mt. Lemmon Survey MPS 229096
2006 05 06.30088 14 28 16.46 -19 00 55.8 19.3 V G96 – Mt. Lemmon Survey MPS 229096
2006 06 01.21286 14 10 18.76 -16 30 27.9 19.8 V G96 – Mt. Lemmon Survey MPS 229096
2006 06 01.21896 14 10 18.58 -16 30 25.9 19.8 V G96 – Mt. Lemmon Survey MPS 229096
2006 06 01.22501 14 10 18.44 -16 30 24.3 19.8 V G96 – Mt. Lemmon Survey MPS 229096
2006 06 01.23099 14 10 18.26 -16 30 22.7 19.7 V G96 – Mt. Lemmon Survey MPS 229096
2007 10 11.28190 01 04 53.49 +12 49 57.0 19.9 r 699 – Lowell Observatory-LONEOS MPS 229096
2007 10 11.30247 01 04 52.35 +12 49 48.1 19.1 V G96 – Mt. Lemmon Survey MPS 223752
2007 10 11.30749 01 04 52.00 +12 49 49.2 19.7 r 699 – Lowell Observatory-LONEOS MPS 229096
2007 10 11.30956 01 04 51.96 +12 49 45.6 19.3 V G96 – Mt. Lemmon Survey MPS 223752
2007 10 11.31666 01 04 51.56 +12 49 42.3 19.7 V G96 – Mt. Lemmon Survey MPS 223752
2007 10 11.32377 01 04 51.16 +12 49 40.0 19.7 V G96 – Mt. Lemmon Survey MPS 223752
2007 10 11.33310 01 04 50.64 +12 49 38.0 19.5 r 699 – Lowell Observatory-LONEOS MPS 229096
2007 10 11.35870 01 04 49.11 +12 49 27.9 19.8 r 699 – Lowell Observatory-LONEOS MPS 229096
2007 10 12.25110 01 04 01.68 +12 43 49.4 19.8   704 – Lincoln Laboratory ETS, New Mexico MPS 322275
2007 10 12.26231 01 04 01.14 +12 43 44.3 20.0   704 – Lincoln Laboratory ETS, New Mexico MPS 322275
2007 10 12.27354 01 04 00.41 +12 43 40.6 20.2   704 – Lincoln Laboratory ETS, New Mexico MPS 322275
2007 10 12.28487 01 03 59.82 +12 43 34.9 20.2   704 – Lincoln Laboratory ETS, New Mexico MPS 322275
2007 10 13.13885 01 03 14.62 +12 38 08.8 20.2 V 691 – Steward Observatory, Kitt Peak-Spacewatch MPS 223752
2007 10 13.15650 01 03 13.63 +12 38 02.0 20.1 V 691 – Steward Observatory, Kitt Peak-Spacewatch MPS 223752
2007 10 13.17416 01 03 12.68 +12 37 56.0 19.8 V 691 – Steward Observatory, Kitt Peak-Spacewatch MPS 223752
2007 10 20.26964 00 57 05.97 +11 51 49.6 19.9 V 703 – Catalina Sky Survey MPS 229096
2007 10 20.27657 00 57 05.68 +11 51 46.9 20.6 V 703 – Catalina Sky Survey MPS 229096
2007 10 20.28351 00 57 05.22 +11 51 45.4 20.6 V 703 – Catalina Sky Survey MPS 229096
2007 10 20.29041 00 57 04.96 +11 51 41.7 20.3 V 703 – Catalina Sky Survey MPS 229096
2007 11 01.07879 00 48 23.60 +10 37 14.4   691 – Steward Observatory, Kitt Peak-Spacewatch MPS 229096
2007 11 01.10315 00 48 22.66 +10 37 06.1   691 – Steward Observatory, Kitt Peak-Spacewatch MPS 229096
2007 11 01.12750 00 48 21.72 +10 36 57.0   691 – Steward Observatory, Kitt Peak-Spacewatch MPS 229096
2007 11 07.19754 00 44 56.09 +10 02 44.0   704 – Lincoln Laboratory ETS, New Mexico MPS 407573
2007 11 07.20016 00 44 56.07 +10 02 43.5 20.3 V G96 – Mt. Lemmon Survey MPS 229096
2007 11 07.20587 00 44 55.89 +10 02 41.5 20.3 V G96 – Mt. Lemmon Survey MPS 229096
2007 11 07.21147 00 44 55.71 +10 02 39.6 20.3 V G96 – Mt. Lemmon Survey MPS 229096
2007 11 07.21721 00 44 55.57 +10 02 38.0 20.4 V G96 – Mt. Lemmon Survey MPS 229096
2007 11 07.22209 00 44 55.53 +10 02 36.0   704 – Lincoln Laboratory ETS, New Mexico MPS 407573
2007 11 12.17657 00 42 46.40 +09 37 57.2 20.0 V G96 – Mt. Lemmon Survey MPS 229096
2007 11 12.18505 00 42 46.18 +09 37 54.6 20.2 V G96 – Mt. Lemmon Survey MPS 229096
2007 11 12.19352 00 42 46.00 +09 37 52.3 20.3 V G96 – Mt. Lemmon Survey MPS 229096
2007 11 12.20197 00 42 45.79 +09 37 49.6 20.8 V G96 – Mt. Lemmon Survey MPS 229096
2008 12 21.40679 07 15 53.96 +20 10 34.8 21.2 V G96 – Mt. Lemmon Survey MPS 269297
2008 12 21.41128 07 15 53.71 +20 10 35.0 21.5 V G96 – Mt. Lemmon Survey MPS 269297
2008 12 21.41578 07 15 53.46 +20 10 35.5 20.9 V G96 – Mt. Lemmon Survey MPS 269297
2008 12 21.42025 07 15 53.24 +20 10 35.2 21.4 V G96 – Mt. Lemmon Survey MPS 269297
2010 04 14.29885 12 48 41.36 -11 23 59.1 19.8 V 703 – Catalina Sky Survey MPS 322275
2010 04 14.30583 12 48 41.00 -11 23 56.6 19.8 V 703 – Catalina Sky Survey MPS 322275
2010 04 14.31278 12 48 40.53 -11 23 53.0 19.6 V 703 – Catalina Sky Survey MPS 322275
2010 04 14.31978 12 48 40.24 -11 23 50.1 19.2 V 703 – Catalina Sky Survey MPS 322275
2011 06 09.58504 23 37 32.236 +01 41 18.58 21.7 w F51 – Pan-STARRS 1, Haleakala MPS 384688
2011 06 09.59055 23 37 32.584 +01 41 21.59 21.7 w F51 – Pan-STARRS 1, Haleakala MPS 384688
2011 06 09.59608 23 37 32.992 +01 41 24.41 21.5 w F51 – Pan-STARRS 1, Haleakala MPS 384688
2011 06 09.60161 23 37 33.346 +01 41 27.49 21.5 w F51 – Pan-STARRS 1, Haleakala MPS 384688
2011 09 02.43511 00 00 37.569 +07 00 02.68 20.2 w F51 – Pan-STARRS 1, Haleakala MPS 390606
2011 09 02.44940 00 00 36.910 +06 59 59.54 20.1 w F51 – Pan-STARRS 1, Haleakala MPS 390606
2011 09 02.46379 00 00 36.247 +06 59 56.31 20.3 w F51 – Pan-STARRS 1, Haleakala MPS 390606
2011 09 06.49847 23 57 31.610 +06 43 31.14 19.7 i F51 – Pan-STARRS 1, Haleakala MPS 392544
2011 09 06.51075 23 57 31.002 +06 43 27.88 19.6 i F51 – Pan-STARRS 1, Haleakala MPS 392544
2011 09 18.33317 23 47 35.19 +05 41 48.7 19.3 V 703 – Catalina Sky Survey MPS 392544
2011 09 18.34086 23 47 34.94 +05 41 44.8 20.6 V 703 – Catalina Sky Survey MPS 392544
2011 09 18.34860 23 47 34.36 +05 41 44.0 20.0 V 703 – Catalina Sky Survey MPS 392544
2011 09 18.35640 23 47 34.04 +05 41 39.4 19.8 V 703 – Catalina Sky Survey MPS 392544
2011 09 20.34824 23 45 50.68 +05 29 48.9 19.4 V G96 – Mt. Lemmon Survey MPS 392544
2011 09 20.35475 23 45 50.32 +05 29 46.7 19.4 V G96 – Mt. Lemmon Survey MPS 392544
2011 09 20.36173 23 45 49.96 +05 29 44.1 19.3 V G96 – Mt. Lemmon Survey MPS 392544
2011 09 20.36813 23 45 49.60 +05 29 41.9 19.2 V G96 – Mt. Lemmon Survey MPS 392544
2011 09 24.30044 23 42 28.01 +05 05 31.5 19.1   704 – Lincoln Laboratory ETS, New Mexico MPS 394166
2011 09 24.31601 23 42 27.15 +05 05 25.7 19.6   704 – Lincoln Laboratory ETS, New Mexico MPS 394166
2011 09 24.34448 23 42 25.70 +05 05 15.8 19.4   704 – Lincoln Laboratory ETS, New Mexico MPS 394166
2011 09 24.35748 23 42 25.05 +05 05 09.8 19.8   704 – Lincoln Laboratory ETS, New Mexico MPS 394166
2011 10 06.12622 23 33 16.12 +03 51 30.3 19.6 V G96 – Mt. Lemmon Survey MPS 394973
2011 10 06.13450 23 33 15.76 +03 51 27.1 19.8 V G96 – Mt. Lemmon Survey MPS 394973
2011 10 06.14289 23 33 15.40 +03 51 24.0 19.8 V G96 – Mt. Lemmon Survey MPS 394973
2011 10 06.15123 23 33 15.04 +03 51 21.4 19.6 V G96 – Mt. Lemmon Survey MPS 394973
2011 10 28.18863 23 23 30.48 +02 01 20.4 20.2 V G96 – Mt. Lemmon Survey MPS 398060
2011 10 28.19382 23 23 30.44 +02 01 19.7 20.1 V G96 – Mt. Lemmon Survey MPS 398060
2011 10 28.19899 23 23 30.33 +02 01 18.4 20.2 V G96 – Mt. Lemmon Survey MPS 398060
2011 10 28.20419 23 23 30.26 +02 01 17.7 20.4 V G96 – Mt. Lemmon Survey MPS 398060
2014 02 28.46924 11 48 55.859 -05 22 48.64 20.1 w F51 – Pan-STARRS 1, Haleakala MPS 505239
2014 02 28.48132 11 48 55.290 -05 22 45.95 20.2 w F51 – Pan-STARRS 1, Haleakala MPS 505239
2014 02 28.49341 11 48 54.728 -05 22 43.32 20.2 w F51 – Pan-STARRS 1, Haleakala MPS 505239
2014 03 07.34970 11 43 26.36 -04 53 57.1 20.1 V G96 – Mt. Lemmon Survey MPS 505239
2014 03 07.36031 11 43 25.82 -04 53 54.1 20.1 V G96 – Mt. Lemmon Survey MPS 505239
2014 03 07.37126 11 43 25.24 -04 53 50.9 19.9 V G96 – Mt. Lemmon Survey MPS 505239
2014 03 07.38139 11 43 24.73 -04 53 48.3 19.9 V G96 – Mt. Lemmon Survey MPS 505239
2014 03 07.41720 11 43 22.85 -04 53 38.1 19.6 V G96 – Mt. Lemmon Survey MPS 505239
